[[{"header":{"parameterUnit":"m.s-1","parameterCategory":1,"la1":30.2992,"la2":30.254,"lo1":-89.0895,"lo2":-89.0443,"dy":0.0025,"dx":0.0025,"nx":19,"ny":19,"refTime":"2026-03-24T03:00:00:Z","depth":0,"parameterNumber":2,"parameterNumberName":"U-component_of_WINDS"},"data":[0,0,0,-6.2976,-6.2981,-6.3235,-6.3236,-6.3556,-6.3559,0,0,0,0,0,0,0,0,0,0,0,-6.29,-6.2902,-6.2975,-6.2982,-6.3235,-6.3236,-6.3555,-6.3559,0,0,0,0,0,0,0,0,0,0,0,-6.2899,-6.2901,-6.2904,-6.2983,-6.3234,-6.3236,-6.3555,-6.3364,0,0,0,0,0,0,0,0,0,0,-6.3119,-6.3048,-6.2901,-6.2904,-6.2984,-6.3234,-6.3236,-6.3355,-6.3376,-6.344,0,-6.3497,0,-6.3533,-6.358,-6.3581,0,0,0,-6.2982,-6.3031,-6.31,-6.2905,-6.2987,-6.3234,-6.3121,-6.3367,-6.3391,-6.3468,-6.3502,-6.3514,-6.3538,-6.3582,-6.3583,-6.3951,-6.3952,0,0,-6.2968,-6.2944,-6.3084,-6.3115,-6.3078,-6.3113,-6.3128,-6.3382,-6.3416,-6.3503,-6.3521,-6.3544,-6.3584,-6.3586,-6.3949,-6.3951,0,0,0,-6.2928,-6.2934,-6.2998,-6.3102,-6.3148,-6.312,-6.3138,-6.3405,-6.3428,-6.3525,-6.3547,-6.3586,-6.359,-6.3947,-6.395,-6.4008,0,0,0,-6.2919,-6.2911,-6.2992,-6.298,-6.3144,-6.328,-6.3156,-6.341,-6.344,-6.3546,-6.3586,-6.3593,-6.3945,-6.3949,-6.4003,-6.4039,0,0,0,-6.2884,-6.2907,-6.2943,-6.2978,-6.3086,-6.3277,-6.3314,-6.3417,-6.3454,-6.3581,-6.3594,-6.3944,-6.3948,-6.3998,-6.4031,-6.4126,0,0,0,-6.2838,-6.2992,-6.2944,-6.3125,-6.3084,-6.3313,-6.3313,-6.3484,-6.3601,-6.3588,-6.3946,-6.395,-6.3996,-6.4026,-6.4121,-6.4199,-6.4231,0,0,-6.3019,-6.3013,-6.3122,-6.3086,-6.3317,-6.3276,-6.3516,-6.3645,-6.3679,-6.3858,-6.3867,-6.4005,-6.403,-6.4125,-6.4424,-6.4448,0,0,0,-6.3171,-6.3248,-6.3315,-6.3425,-6.3529,-6.3619,-6.3715,-6.3763,-6.3916,-6.3767,-6.4068,-6.4084,-6.414,-6.4179,-6.42,-6.4248,-6.3968,-6.3967,-6.3967,-6.3388,-6.3425,-6.3607,-6.3674,-6.3782,-6.3879,-6.3969,-6.405,-6.4055,-6.4126,-6.4177,-6.4355,-6.4399,-6.4415,-6.4465,-6.4226,-6.4226,-6.4227,-6.4227,-6.3653,-6.3766,-6.3772,-6.3949,-6.3987,-6.4136,-6.4237,-6.4236,-6.4379,-6.4319,-6.437,-6.4296,-6.4441,-6.4487,-6.4232,-6.4231,-6.423,-6.423,-6.4229,-6.3796,-6.3856,-6.3914,-6.4078,-6.4201,-6.4265,-6.4402,-6.4433,-6.4462,-6.4514,-6.457,-6.4569,-6.4568,-6.4539,-6.454,-6.4541,-6.4541,-6.4542,-6.4542,-6.3919,-6.3983,-6.4095,-6.422,-6.4295,-6.4398,-6.45,-6.4574,-6.4664,-6.4675,-6.4676,-6.4671,-6.4451,-6.4392,-6.4552,-6.455,-6.4549,-6.4548,-6.4547,-6.4165,-6.4115,-6.4289,-6.4364,-6.4513,-6.4631,-6.4671,-6.482,-6.4886,-6.4953,-6.494,-6.4774,-6.4768,-6.4752,-6.4703,-6.4934,-6.4934,-6.4934,-6.4934,-6.4282,-6.4285,-6.4469,-6.4587,-6.4707,-6.4761,-6.4954,-6.5036,-6.5112,-6.5155,-6.5127,-6.5067,-6.5049,-6.5055,-6.5031,-6.4986,-6.5284,-6.5284,-6.5285,-6.4434,-6.445,-6.4608,-6.4684,-6.4803,-6.4904,-6.5086,-6.5221,-6.5298,-6.5299,-6.5188,-6.5174,-6.5077,-6.5044,-6.5037,-6.5,-6.4918,0,0]},{"header":{"parameterUnit":"m.s-1","parameterCategory":1,"la1":30.2992,"la2":30.254,"lo1":-89.0895,"lo2":-89.0443,"dy":0.0025,"dx":0.0025,"nx":19,"ny":19,"refTime":"2026-03-24T03:00:00:Z","depth":0,"parameterNumber":3,"parameterNumberName":"V-component_of_WINDS"},"data":[0,0,0,3.0187,3.0186,3.0165,3.0165,3.0141,3.0141,0,0,0,0,0,0,0,0,0,0,0,3.0196,3.0196,3.0187,3.0186,3.0166,3.0165,3.0141,3.0141,0,0,0,0,0,0,0,0,0,0,0,3.0196,3.0196,3.0196,3.0186,3.0166,3.0165,3.0141,3.0156,0,0,0,0,0,0,0,0,0,0,3.0175,3.0187,3.0196,3.0196,3.0186,3.0166,3.0165,3.0156,3.0155,3.0152,0,3.0152,0,3.0147,3.014,3.014,0,0,0,3.0183,3.0188,3.018,3.0196,3.0186,3.0166,3.0174,3.0155,3.0154,3.015,3.0152,3.0151,3.0146,3.014,3.014,3.014,3.014,0,0,3.0184,3.0193,3.0182,3.0179,3.0185,3.0175,3.0173,3.0154,3.0156,3.0152,3.015,3.0146,3.014,3.0139,3.014,3.014,0,0,0,3.019,3.0194,3.0186,3.0181,3.0177,3.0174,3.0173,3.0157,3.0154,3.015,3.0146,3.0139,3.0139,3.0139,3.014,3.0155,0,0,0,3.019,3.0197,3.0187,3.0192,3.0177,3.0167,3.0176,3.0155,3.0153,3.0146,3.0139,3.0139,3.0139,3.014,3.0155,3.016,0,0,0,3.0196,3.0198,3.0196,3.0192,3.0184,3.0167,3.0163,3.0154,3.015,3.014,3.0139,3.0139,3.014,3.0154,3.0159,3.0163,0,0,0,3.0204,3.0209,3.0196,3.02,3.0185,3.0178,3.0163,3.0157,3.015,3.0139,3.0139,3.014,3.0154,3.0159,3.0163,3.0167,3.0171,0,0,3.0214,3.021,3.0212,3.02,3.0198,3.018,3.018,3.0164,3.0154,3.0145,3.0145,3.0155,3.0159,3.0163,3.0188,3.019,0,0,0,3.0218,3.0219,3.0217,3.0212,3.0202,3.0194,3.0178,3.0172,3.0165,3.0152,3.0158,3.016,3.0162,3.0163,3.0166,3.0166,3.0141,3.0141,3.0141,3.0243,3.0233,3.0235,3.0222,3.0218,3.0203,3.0198,3.0188,3.0176,3.0178,3.0175,3.0191,3.0194,3.0195,3.0196,3.0178,3.0178,3.0178,3.0178,3.0257,3.0257,3.0245,3.0242,3.0231,3.0228,3.0215,3.0207,3.0202,3.0192,3.0193,3.0183,3.0199,3.0199,3.0179,3.0179,3.0178,3.0178,3.0178,3.0271,3.027,3.0265,3.0258,3.0254,3.0241,3.0238,3.0227,3.0217,3.0218,3.0213,3.0213,3.0211,3.0217,3.0217,3.0217,3.0217,3.0217,3.0217,3.0288,3.0282,3.0281,3.0273,3.027,3.0264,3.0251,3.0246,3.0238,3.0231,3.0231,3.0219,3.0203,3.0199,3.0218,3.0218,3.0218,3.0218,3.0218,3.0304,3.0299,3.0298,3.0295,3.0285,3.0282,3.027,3.0262,3.0257,3.0256,3.0245,3.0235,3.0229,3.0227,3.0223,3.0248,3.0248,3.0248,3.0248,3.0315,3.0312,3.0309,3.0305,3.0299,3.0289,3.0288,3.0278,3.0267,3.0263,3.0258,3.0253,3.0252,3.0246,3.0244,3.024,3.0268,3.0268,3.0268,3.0324,3.0321,3.0321,3.0312,3.0305,3.0298,3.0296,3.029,3.0277,3.0269,3.026,3.0259,3.025,3.0248,3.0237,3.0234,3.0226,0,0]}]]